User: anonymous   Login
Location: Hurecourt
(47.9030°N, 6.0653°E)
Time: 18:25:56
(UTC+00:00)
Language:

Nadezhda 4 Rocket - Orbit

View from above orbital plane
View from above orbital plane
View from above satellite
View from above satellite

Ground track
Ground track

The orbit data is extracted from the following two-line orbital elements,

1 23180U 94041B   20262.91201940 -.00000010 +00000-0 -25079-4 0  9990
2 23180 082.9446 125.7280 0029866 127.0945 243.9447 13.77984646316494
Epoch (UTC): 18 September 2020 21:53:18
Eccentricity: 0.0029866
inclination: 82.9446°
perigee height: 949 km
apogee height: 993 km
right ascension of ascending node: 125.7280°
argument of perigee: 127.0945°
revolutions per day: 13.77984646
mean anomaly at epoch: 243.9447°
orbit number at epoch: 31649

The dashed part of the orbit path shows where the satellite is in the earth's shadow,  

DLR